Regional Weather Roundup
Issued by NWS Wakefield, VA

Home | Current Version | Previous Version | Graphics & Text | Print | Product List | Glossary On
Versions: 1 2 3 4 5 6 7 8 9 10 11 12 13 14 15 16 17 18 19 20 21 22 23 24 25 26 27 28 29 30 31 32 33 34 35 36 37 38 39 40 41 42 43 44 45 46 47 48 49 50
000
ASUS41 KAKQ 060714
RWRAKQ

REGIONAL WEATHER ROUNDUP
NATIONAL WEATHER SERVICE WAKEFIELD VA
200 AM EST SAT FEB 06 2016

Note: "fair" indicates few or no clouds below 12,000 feet with no
significant weather and/or obstructions to visibility. * = Denotes
station may not report precipitation (e.g., rain,snow,etc.),
thunder or fog.

VAZ042-051-052>054-056-060800-
NORTHERN VIRGINIA

CITY           SKY/WX    TMP DP  RH WIND       PRES   REMARKS
WASH NATIONAL  FAIR      33  22  63 CALM      30.42R
DULLES         FAIR      25  19  78 CALM      30.40S
FORT BELVOIR   FAIR      24  21  87 CALM      30.41F
QUANTICO       FAIR      29  23  78 NW5       30.43S
FREDERICKSBRG* FAIR      25  22  87 CALM      30.42S
STAFFORD*      FAIR      22  20  93 NW3       30.46S
WARRENTON      FAIR      22  21  95 CALM      30.40S
CULPEPER*      FAIR      23  20  90 CALM      30.41F
MANASSAS*      FAIR      21  21 100 CALM      30.41F
LEESBURG*      FAIR      27  25  93 W5        30.41S
WINCHESTER     FAIR      27  19  74 CALM      30.37F
FRONT ROYAL*   FAIR      28  19  69 CALM      30.36F
LURAY*         FAIR      25  21  86 CALM      30.37S
$$

VAZ048-049-060>072-079>083-060800-
CENTRAL AND SOUTH CENTRAL VIRGINIA

CITY           SKY/WX    TMP DP  RH WIND       PRES   REMARKS
RICHMOND       FAIR      26  22  84 CALM      30.42R
CHESTERFIELD*  FAIR      25  10  54 CALM      30.43R
PETERSBURG*    FAIR      25  23  93 CALM      30.43S
HANOVER        FAIR      25  22  88 CALM      30.43S
TAPPAHANNOCK*  FAIR      26  25  96 CALM      30.42S
QUINTON*       FAIR      25  23  91 CALM      30.42S
CHARLOTTSVILLE FAIR      27  15  61 CALM      30.38S
GORDONSVILLE*  FAIR      24  22  92 CALM      30.39S
ORANGE*        FAIR      27  23  86 CALM      30.41F
LOUISA*        FAIR      23  18  80 CALM      30.38F
BUMPASS*       FAIR      24  20  86 CALM      30.40F
FARMVILLE*     FAIR      23  23  98 CALM      30.40S
CREWE*         FAIR      23  23 100 CALM      30.41S
FORT PICKETT*  FAIR      27  23  82 NW5       30.41S
CHASE CITY*    FAIR      26  24  93 CALM      30.40S
CLARKSVILLE*   FAIR      27  27 100 CALM      30.40S
SOUTH HILL*    FAIR      24  22  89 CALM      30.46F
LAWRENCEVILLE* FAIR      26  24  91 CALM      30.41S
EMPORIA*       FAIR      25  23  93 CALM      30.44S
$$

VAZ088>098-060800-
SOUTHEAST VIRGINIA

CITY           SKY/WX    TMP DP  RH WIND       PRES   REMARKS
NORFOLK        FAIR      38  22  52 N9        30.41R
VIRGINIA BEACH FAIR      36  22  56 N3        30.40R
NORFOLK NAVAL  FAIR      37  23  56 N8        30.43R
WEST POINT*    FAIR      25  23  93 CALM      30.44S
SALUDA*        FAIR      28  25  86 CALM      30.42R
NEWPORT NEWS   FAIR      28  24  85 CALM      30.42R
LANGLEY AFB    FAIR      30  23  75 NW3       30.41R
FORT EUSTIS    FAIR      29  21  71 E1        30.40S
WILLIAMSBURG*  FAIR      30  27  86 CALM      30.43S
HR EXEC AP*    FAIR      27  23  86 CALM      30.44R
FRANKLIN*      FAIR      27  26  94 CALM      30.43S
US460-WAKEFLD  FAIR      26  23  88 CALM      30.42S
$$

VAZ020-022-025-037-045-060800-
WEST CENTRAL AND SOUTHWEST VIRGINIA

CITY           SKY/WX    TMP DP  RH WIND       PRES   REMARKS
STAUNTON*      FAIR      26  22  83 CALM      30.39R
WAYNESBORO*    FAIR      23  16  74 CALM      30.35S
HOT SPRINGS VA FAIR      23  13  65 CALM      30.23R
LYNCHBURG      FAIR      23  17  78 CALM      30.39S
DANVILLE       FAIR      26  20  77 CALM      30.40S
SOUTH BOSTON*  FAIR      26  23  86 CALM      30.40F
MARTINSVILLE   FAIR      20  17  86 CALM      30.42R
ROANOKE        FAIR      28  16  60 N5        30.40S
BLACKSBURG     FAIR      22  17  81 CALM      30.37F
DUBLIN*        FAIR      25  19  76 CALM      30.36S
MARION*        FAIR      22  17  80 CALM      30.35S
HILLSVILLE*    FAIR      25  14  62 W3        30.30F
RICHLANDS*     FAIR      26  10  50 CALM      30.32R
WISE*          FAIR      28   9  43 S3        30.32S
ABINGDON*      FAIR      26  16  65 E3        30.35S
$$

MDZ021>025-VAZ099-100-060800-
SOUTHERN MARYLAND AND THE DELMARVA PENINSULA

CITY           SKY/WX    TMP DP  RH WIND       PRES   REMARKS
PATUXENT RIVER CLEAR     26  21  81 NW6       30.41R
BAY BRIDGE APT   N/A     32  21  64 CALM      30.41S
LEONARDTOWN    CLOUDY    27  23  86 CALM      30.42S
DOVER          CLOUDY    31  22  71 NW6       30.38R
GEORGETOWN     CLOUDY    30  22  72 CALM      30.40R
EASTON         CLOUDY    31  25  77 CALM      30.44R
CAMBRIDGE      PTCLDY    32  23  69 CALM      30.40R
SALISBURY      PTCLDY    27  25  92 CALM      30.40R
OCEAN CITY     CLEAR     29  22  75 NW5       30.39S
WALLOPS ISLAND FAIR      29  23  78 NW6       30.40S
ACCOMACK*      FAIR      30  23  74 N5        30.40S
$$

NCZ012>017-030>032-060800-
NORTH CENTRAL AND EASTERN NORTH CAROLINA

CITY           SKY/WX    TMP DP  RH WIND       PRES   REMARKS
ROANOKE RAPIDS FAIR      28  28 100 CALM      30.42S
RALEIGH        PTCLDY    28  24  85 CALM      30.40F
ELIZABETH CITY CLEAR     30  25  81 NW5       30.42R
AHOSKIE*       CLEAR     28  26  91 CALM      30.42F
EDENTON*       CLEAR     32  30  93 CALM      30.42S
CURRITUCK*     CLEAR     32  30  94 CALM      30.42R
KILL DEVIL HLS PTCLDY    36  26  65 CALM      30.39R
MANTEO         CLEAR     37  27  66 N6        30.41R
CAPE HATTERAS  PTCLDY    40  26  57 N8        30.40R
TARBORO*       FAIR      29  28  98 CALM      30.43S
GOLDSBORO      CLEAR     30  30 100 CALM      30.39F
WASHINGTON     CLEAR     30  28  92 CALM      30.42S
GREENVILLE     CLEAR     30  30 100 CALM      30.42S FOG
NEW BERN       CLEAR     34  30  85 CALM      30.42S
WILMINGTON     CLEAR     33  30  88 CALM      30.40S
$$

VAZ048-060800-
ELSEWHERE

CITY           SKY/WX    TMP DP  RH WIND       PRES   REMARKS
HARRISBURG PA  CLOUDY    28  17  63 NW5       30.37S
BALTIMORE      PTCLDY    27  20  75 CALM      30.40R
ANNAPOLIS      CLOUDY    30  23  75 CALM      30.41R
ANDREWS AFB    FAIR      27  20  75 CALM      30.39S
PHILADELPHIA   PTCLDY    31  19  61 NW3       30.39S
HENDERSON NC   CLEAR     29  20  69 CALM      30.40S
GREENSBORO     CLOUDY    31  16  54 CALM      30.37F
ROCKY MOUNT    CLEAR     28  27  96 CALM      30.41F FOG
$$

VAZ100-060800-
MARINE

STATION/POSITION TIME  TEMP    WIND        PRES    WAVE   SWELL
                       AIR SEA DIR/SP/G            HT/PER HT/PER
                 (UTC) (F)     (DEG/KT/KT) (MB)    (FT/S) (FT/S)
BRANDYWINE LGT   0600   36     350/ 11/ 13 1028.8R
CAPE MAY NJ      0600   36 42   10/  3/  5 1028.6R
LEWES DE         0600   37 42  340/ 12/ 16 1028.8S
15NM E FENWICK I 0650   38 45              1028.6S   5/ 7
OCEAN-CITY-INLET 0600   34 42  340/  5/  6 1028.3R
WACHAPREAGUE VA  0600   32 45  300/  1/  2 1029.4S
THOMAS POINT MD  0700   33 40  330/  6/  7 1030.3R
GOOSES REEF MD   0700   37 39  350/ 10/ 12 1030.6R   1/ 3
COVE POINT MD    0600   36     360/ 11/ 13 1030.1S
SOLOMONS ISLAND  0600   33 41  340/  3/  4   N/A
BISHOPS HEAD MD  0600   33 41  330/  6/  7 1028.4F
POTOMAC MD       0700   35 41  350/  6/  8 1028.9R   0
CAMBRIDGE MD     0600   36 40  320/  8/  9 1028.6F
LEWISETTA VA     0600   37 42  360/  6/  8 1029.5R
RAPPAHANNOCK LGT 0600          360/ 14/ 17 1029.5S
STINGRAY PT      0700   37 42  340/  8/ 10 1029.9R   1/ 3
YORK RVR RNG VA  0600   38      20/ 11/ 13 1028.8F
YORKTOWN VA      0600   36 44  330/  5/  6 1029.5F
JAMESTOWN VA     0700   33 43  350/  2/  2   N/A     0
DOMINION TERM VA 0600   36     360/  1/  3 1029.6F
KIPTOPEKE VA     0600      44   20/  3/  5   N/A
CHES BAY BRIDGE  0600   39 43  350/ 15/ 18 1029.0F
CAPE HENRY VA    0600   39     360/ 14/ 16   N/A
CHESAPEAKE LGHT  0600   39     360/ 13/ 15 1029.7F
WILLOUBY STN VA  0600   38     360/  9/ 11 1027.5S
CAPE HENRY BUOY  0628      46                N/A     4/ 8   2/11
1ST LANDING BUOY 0700      42                N/A     2/ 3
CAPE CHARLES BUO 0626      45                N/A     4/10   3/10
OFFSHORE WE BUOY 0621      49                N/A     6/ 9   5/ 9
64NM E OF VA BCH 0650   43 53   10/ 12/ 17 1028.3F   8/10   7/10
DUCK PIER NC     0600   41 45   20/ 13/ 16 1028.5F
44100 DUCK FRF   0624      46                N/A     6/ 9   2/11
44056 DUCK FRF   0611      45                N/A     5/11   2/11
OREGON INLET NC  0600   39 46  340/  6/  9 1029.2F
HATTERAS NC      0600   43 54   10/ 11/ 14 1028.6S
DIAMOND SHLS NC  0650   45 73   20/ 14/ 19 1029.0F   8/10   7/10
$$



USA.gov is the U.S. government's official web portal to all federal, state and local government web resources and services.